[[{"header":{"parameterUnit":"m.s-1","parameterCategory":1,"la1":30.2991,"la2":30.254,"lo1":-89.0895,"lo2":-89.0444,"dy":0.0017,"dx":0.0017,"nx":28,"ny":28,"refTime":"2025-04-13T09:00:00:Z","depth":0,"parameterNumber":2,"parameterNumberName":"U-component_of_WINDS"},"data":[0,0,0,0,0,0,0,0,0,0,0,0,0,0,0,0,0,0,0,0,0,0,0,0,0,0,0,0,0,0,0,0,0,0,0,0,0,0,0,0,0,0,0,0,0,0,0,0,0,0,0,0,0,0,0,0,0,0,0.0392,0.0391,0,0.0296,0.0295,0.0294,0.0265,0.0265,0.0266,0.0266,0.0165,0.0162,0.0159,0,0,0,0,0,0,0,0,0,0,0,0,0,0.0545,0.0542,0.0392,0.0391,0.0389,0.0296,0.0295,0.0294,0.0265,0.0265,0.0266,0.0266,0.0166,0.0162,0.0158,0,0,0,0,0,0,0,0,0,0,0,0,0,0.0467,0.0541,0.0392,0.0364,0.036,0.0296,0.0295,0.0293,0.0264,0.0265,0.0266,0.0267,0.0167,0.0162,0.0158,0.0114,0,0,0.0143,0.0141,0,0,0,0,0,0,0,0,0.0471,0.0461,0.0369,0.0366,0.0362,0.0293,0.0312,0.0233,0.0264,0.0301,0.0266,0.0267,0.0207,0.0199,0.0179,0.0109,0.0105,0.0143,0.014,0.0138,0.0137,0,0,0,0,0,0,0,0.0476,0.0465,0.0354,0.0368,0.0363,0.0354,0.0344,0.0297,0.0251,0.0298,0.0295,0.0285,0.0205,0.0184,0.0176,0.0104,0.0143,0.0139,0.0136,0.0134,-0.001,-0.0011,0,0,0,0,0,0,0.0487,0.047,0.0357,0.0351,0.0419,0.0351,0.0339,0.0314,0.0251,0.0242,0.0284,0.0284,0.0191,0.0182,0.0173,0.0115,0.0138,0.0134,0.0131,-0.0009,-0.001,-0.0011,0,0,0,0,0,0,0.0491,0.0477,0.0361,0.041,0.0394,0.0348,0.0319,0.0312,0.0291,0.0241,0.0232,0.0271,0.0192,0.0179,0.0128,0.0111,0.0132,0.0127,-0.0008,-0.001,-0.0011,0.0001,0,0,0,0,0,0,0.0495,0.0479,0.0463,0.0409,0.0392,0.0319,0.0319,0.031,0.0283,0.0282,0.0227,0.0218,0.0191,0.0136,0.0124,0.0105,0.0124,-0.0007,-0.0009,-0.001,0.0002,0.0001,-0.0001,0,0,0,0,0,0.0501,0.047,0.0462,0.0449,0.0371,0.0319,0.0308,0.0279,0.0282,0.0265,0.0232,0.022,0.0116,0.0131,0.0117,0.0097,-0.0006,-0.0008,-0.001,0.0003,0.0001,-0.0001,0,0,0,0,0,0,0.0523,0.0463,0.0453,0.0405,0.0367,0.0314,0.0291,0.0278,0.0237,0.0238,0.0202,0.0189,0.014,0.0114,0.0132,0.005,0.0054,0.0049,0.0069,0.0067,0.0065,0.0072,0.012,0,0,0,0,0,0.0522,0.0486,0.0435,0.0397,0.0378,0.0338,0.0314,0.0295,0.0254,0.0237,0.0201,0.016,0.0118,0.0091,0.005,-0.0001,-0.0015,-0.0022,-0.0024,-0.0025,-0.0029,-0.0061,-0.0066,-0.0019,-0.0019,-0.0019,0,0,0.052,0.0483,0.0462,0.04,0.0369,0.033,0.0325,0.0285,0.0255,0.0231,0.018,0.0152,0.0104,0.0052,0.0028,0.0028,-0.0045,-0.0028,-0.0028,-0.0032,-0.0064,-0.0068,-0.0072,-0.002,-0.002,-0.002,0,0,0.0496,0.0465,0.0429,0.0397,0.035,0.0323,0.0314,0.0262,0.0242,0.0191,0.0171,0.0135,0.0064,0.003,0.0003,-0.0036,-0.005,-0.0048,-0.0057,-0.0088,-0.0092,-0.0095,-0.0111,-0.0116,-0.0052,-0.0052,-0.0052,0,0.0499,0.0442,0.0412,0.0372,0.0345,0.0321,0.0283,0.0253,0.0194,0.0175,0.0177,0.0085,0.0052,-0.001,-0.0019,-0.0039,-0.0052,-0.0043,-0.0088,-0.0092,-0.0096,-0.0112,-0.0118,-0.0052,-0.0052,-0.0052,-0.0052,0,0.0447,0.0407,0.0383,0.0327,0.0296,0.0258,0.022,0.0193,0.0176,0.0148,0.0095,0.0053,0.0002,-0.0014,-0.0031,-0.0079,-0.0077,-0.0081,-0.0078,-0.01,-0.0115,-0.0122,-0.0051,-0.0052,-0.0052,-0.0052,0,0,0.0435,0.0361,0.0353,0.0326,0.027,0.0238,0.0197,0.0148,0.0124,0.0083,0.0046,-0.0014,-0.0019,-0.0049,-0.0071,-0.0097,-0.0129,-0.0099,-0.0101,-0.0105,-0.0187,-0.0185,-0.0191,-0.0138,-0.0139,-0.014,-0.0184,0,0.0402,0.0329,0.0301,0.024,0.0202,0.0178,0.0142,0.0103,0.0076,0.0037,0.0006,-0.0037,-0.0039,-0.0058,-0.0085,-0.0119,-0.0146,-0.0116,-0.0175,-0.0176,-0.0163,-0.0199,-0.0196,-0.0236,-0.019,-0.0191,-0.0191,0,0.0355,0.0314,0.025,0.0197,0.018,0.0148,0.0099,0.0063,0.0018,-0.0001,-0.0035,-0.0055,-0.0101,-0.0094,-0.0159,-0.0138,-0.0164,-0.0185,-0.0187,-0.0195,-0.0186,-0.021,-0.0248,-0.0255,-0.0201,-0.02,-0.02,0,0.035,0.0279,0.023,0.0208,0.0146,0.0124,0.0097,0.0052,0.0023,-0.002,-0.004,-0.0088,-0.0115,-0.0153,-0.0187,-0.0178,-0.025,-0.0245,-0.0269,-0.0268,-0.0284,-0.0283,-0.0329,-0.0297,-0.0297,-0.0297,-0.0297,0,0.0316,0.0277,0.0227,0.0197,0.0152,0.0119,0.0075,0.0046,0.0005,-0.0032,-0.0055,-0.009,-0.0131,-0.0172,-0.0199,-0.0251,-0.0262,-0.028,-0.0287,-0.0279,-0.0277,-0.0297,-0.0296,-0.0298,-0.0298,-0.0298,-0.0297,0,0.0302,0.0268,0.0213,0.0158,0.0143,0.0112,0.0064,0.0033,0.0004,-0.0043,-0.0056,-0.0102,-0.0151,-0.0188,-0.0252,-0.027,-0.0326,-0.0332,-0.0311,-0.0315,-0.0337,-0.0335,-0.04,-0.0411,-0.0369,-0.037,-0.037,0,0.0282,0.0252,0.0193,0.0167,0.014,0.0098,0.0068,0.0033,0.0002,-0.0053,-0.0078,-0.0129,-0.0172,-0.025,-0.029,-0.034,-0.0349,-0.0369,-0.0357,-0.0349,-0.0353,-0.0351,-0.0356,-0.0371,-0.0371,-0.0371,-0.0371,0,0.0249,0.0233,0.0192,0.0143,0.0108,0.0068,0.0028,0.0007,-0.0035,-0.0069,-0.012,-0.0153,-0.0219,-0.027,-0.0324,-0.0354,-0.0371,-0.0374,-0.0383,-0.0376,-0.0363,-0.0373,-0.0317,-0.0373,-0.0373,-0.0373,-0.0373,-0.0373,0.023,0.0201,0.0155,0.0108,0.0074,0.0036,0.0004,-0.003,-0.0072,-0.0128,-0.0147,-0.02,-0.0248,-0.0322,-0.0353,-0.0396,-0.0396,-0.0408,-0.0411,-0.0414,-0.0415,-0.0355,-0.0406,-0.0406,-0.0406,-0.0406,-0.0406,0,0.0194,0.0163,0.0121,0.0064,0.0027,0.0016,-0.003,-0.0061,-0.0107,-0.015,-0.0192,-0.0251,-0.0302,-0.0346,-0.0399,-0.0426,-0.0435,-0.0439,-0.0438,-0.0446,-0.0411,-0.0399,-0.0431,-0.0431,-0.0431,-0.0431,-0.0431,-0.0431,0.0171,0.012,0.0098,0.0029,-0.0003,-0.0055,-0.008,-0.0116,-0.0151,-0.0216,-0.0258,-0.0287,-0.0331,-0.0388,-0.0435,-0.0447,-0.0467,-0.0469,-0.0483,-0.045,-0.0447,-0.0445,-0.0434,-0.0473,-0.0473,-0.0515,-0.0515,-0.0516]},{"header":{"parameterUnit":"m.s-1","parameterCategory":1,"la1":30.2991,"la2":30.254,"lo1":-89.0895,"lo2":-89.0444,"dy":0.0017,"dx":0.0017,"nx":28,"ny":28,"refTime":"2025-04-13T09:00:00:Z","depth":0,"parameterNumber":3,"parameterNumberName":"V-component_of_WINDS"},"data":[0,0,0,0,0,0,0,0,0,0,0,0,0,0,0,0,0,0,0,0,0,0,0,0,0,0,0,0,0,0,0,0,0,0,0,0,0,0,0,0,0,0,0,0,0,0,0,0,0,0,0,0,0,0,0,0,0,0,-1.4099,-1.41,0,-1.4233,-1.4235,-1.4236,-1.4272,-1.4272,-1.4271,-1.427,-1.4406,-1.441,-1.4415,0,0,0,0,0,0,0,0,0,0,0,0,0,-1.3874,-1.3878,-1.4099,-1.41,-1.4102,-1.4233,-1.4235,-1.4236,-1.4273,-1.4272,-1.4271,-1.427,-1.4405,-1.441,-1.4415,0,0,0,0,0,0,0,0,0,0,0,0,0,-1.3986,-1.3879,-1.4098,-1.4136,-1.4141,-1.4232,-1.4235,-1.4237,-1.4273,-1.4272,-1.427,-1.4269,-1.4403,-1.4409,-1.4416,-1.4479,0,0,-1.4436,-1.4438,0,0,0,0,0,0,0,0,-1.398,-1.3994,-1.4129,-1.4134,-1.4139,-1.4235,-1.4205,-1.4318,-1.4273,-1.4223,-1.427,-1.4269,-1.435,-1.4361,-1.4388,-1.4486,-1.4492,-1.4436,-1.444,-1.4443,-1.4445,0,0,0,0,0,0,0,-1.3972,-1.3989,-1.4152,-1.4131,-1.4137,-1.4146,-1.4161,-1.4227,-1.4291,-1.4227,-1.423,-1.4245,-1.4352,-1.4382,-1.4392,-1.4494,-1.4436,-1.4442,-1.4446,-1.4448,-1.4651,-1.4653,0,0,0,0,0,0,-1.3958,-1.3982,-1.4148,-1.4156,-1.4055,-1.4151,-1.4167,-1.4205,-1.429,-1.4302,-1.4246,-1.4246,-1.4371,-1.4384,-1.4397,-1.4478,-1.4443,-1.4449,-1.4453,-1.465,-1.4652,-1.4653,0,0,0,0,0,0,-1.3953,-1.3972,-1.4142,-1.407,-1.4092,-1.4156,-1.4198,-1.4208,-1.4238,-1.4305,-1.4317,-1.4265,-1.4371,-1.4388,-1.4459,-1.4483,-1.4452,-1.4458,-1.4648,-1.465,-1.4653,-1.464,0,0,0,0,0,0,-1.3946,-1.397,-1.3995,-1.407,-1.4096,-1.4202,-1.42,-1.4212,-1.4249,-1.4251,-1.4325,-1.4337,-1.4371,-1.4449,-1.4465,-1.4491,-1.4463,-1.4646,-1.4649,-1.4652,-1.4638,-1.4641,-1.4644,0,0,0,0,0,-1.3938,-1.3985,-1.3996,-1.4016,-1.4128,-1.4203,-1.4218,-1.4258,-1.4251,-1.4277,-1.432,-1.4334,-1.4478,-1.4456,-1.4475,-1.4503,-1.4645,-1.4648,-1.4652,-1.4637,-1.4641,-1.4644,0,0,0,0,0,0,-1.391,-1.3996,-1.4008,-1.4081,-1.4135,-1.4209,-1.4243,-1.426,-1.4316,-1.4315,-1.4361,-1.4378,-1.4446,-1.4482,-1.4456,-1.457,-1.4562,-1.4569,-1.4544,-1.4548,-1.4551,-1.4541,-1.4468,0,0,0,0,0,-1.3912,-1.3967,-1.4038,-1.4096,-1.4122,-1.4178,-1.4212,-1.4238,-1.4295,-1.4318,-1.4366,-1.4421,-1.4479,-1.4515,-1.4572,-1.4644,-1.4661,-1.4673,-1.4675,-1.4677,-1.4683,-1.4725,-1.4731,-1.4664,-1.4664,-1.4664,0,0,-1.3918,-1.3971,-1.4002,-1.4092,-1.4136,-1.4192,-1.4197,-1.4254,-1.4296,-1.4326,-1.4397,-1.4435,-1.4499,-1.4571,-1.4605,-1.4603,-1.4705,-1.4682,-1.4683,-1.4687,-1.4729,-1.4735,-1.4741,-1.4667,-1.4666,-1.4666,0,0,-1.3956,-1.4002,-1.4055,-1.41,-1.4168,-1.4205,-1.4218,-1.429,-1.4317,-1.4389,-1.4413,-1.4463,-1.4561,-1.4606,-1.4642,-1.4699,-1.4715,-1.4716,-1.473,-1.4771,-1.4776,-1.4781,-1.4802,-1.4809,-1.4722,-1.4722,-1.4722,0,-1.3954,-1.4038,-1.408,-1.4138,-1.4177,-1.4208,-1.4263,-1.4304,-1.4387,-1.4413,-1.4409,-1.4534,-1.4579,-1.4663,-1.4677,-1.4705,-1.4722,-1.4708,-1.4772,-1.4777,-1.4782,-1.4803,-1.4811,-1.4722,-1.4722,-1.4722,-1.4722,0,-1.4032,-1.4091,-1.4126,-1.4206,-1.4249,-1.4305,-1.4356,-1.4394,-1.4417,-1.4454,-1.4528,-1.4583,-1.4652,-1.4674,-1.4697,-1.4762,-1.4758,-1.4763,-1.4755,-1.4788,-1.4808,-1.4816,-1.4721,-1.4721,-1.4721,-1.4721,0,0,-1.4055,-1.416,-1.4172,-1.4209,-1.4287,-1.4333,-1.4391,-1.4459,-1.4491,-1.4548,-1.4597,-1.4681,-1.4686,-1.4726,-1.4754,-1.4789,-1.4832,-1.479,-1.4792,-1.4796,-1.4908,-1.4904,-1.4913,-1.4843,-1.4845,-1.4846,-1.4903,0,-1.4103,-1.4208,-1.4248,-1.4333,-1.4388,-1.442,-1.447,-1.4524,-1.4561,-1.4613,-1.4653,-1.4712,-1.4714,-1.4739,-1.4775,-1.4819,-1.4855,-1.4816,-1.489,-1.4892,-1.4873,-1.4923,-1.4919,-1.497,-1.4911,-1.4912,-1.4913,0,-1.4173,-1.4231,-1.4322,-1.4395,-1.4419,-1.4464,-1.4531,-1.458,-1.4642,-1.4666,-1.4712,-1.4738,-1.48,-1.4789,-1.4875,-1.4848,-1.488,-1.4907,-1.491,-1.4918,-1.4904,-1.4933,-1.4988,-1.4995,-1.4926,-1.4925,-1.4924,0,-1.4181,-1.4282,-1.435,-1.4381,-1.4467,-1.4498,-1.4536,-1.4596,-1.4635,-1.4694,-1.472,-1.4784,-1.4819,-1.4869,-1.4912,-1.4899,-1.4994,-1.4986,-1.5016,-1.5015,-1.5034,-1.5032,-1.5095,-1.5055,-1.5055,-1.5055,-1.5055,0,-1.423,-1.4284,-1.4355,-1.4396,-1.4459,-1.4506,-1.4566,-1.4605,-1.4659,-1.4709,-1.4741,-1.4787,-1.4841,-1.4894,-1.4928,-1.4995,-1.501,-1.5032,-1.504,-1.5029,-1.5026,-1.5051,-1.5049,-1.5057,-1.5057,-1.5056,-1.5056,0,-1.4249,-1.4298,-1.4375,-1.4451,-1.4472,-1.4514,-1.458,-1.4622,-1.4661,-1.4724,-1.4741,-1.4802,-1.4867,-1.4915,-1.4998,-1.5021,-1.5092,-1.5101,-1.5072,-1.5076,-1.5103,-1.51,-1.5184,-1.5197,-1.5148,-1.5148,-1.5149,0,-1.4277,-1.432,-1.4402,-1.4438,-1.4476,-1.4533,-1.4574,-1.4622,-1.4663,-1.4738,-1.477,-1.4838,-1.4894,-1.4995,-1.5047,-1.5111,-1.5121,-1.5146,-1.5131,-1.5119,-1.5122,-1.5119,-1.5124,-1.5148,-1.5148,-1.5149,-1.5149,0,-1.4322,-1.4345,-1.4403,-1.4469,-1.4517,-1.4572,-1.4627,-1.4655,-1.4712,-1.4757,-1.4824,-1.4868,-1.4954,-1.502,-1.5089,-1.5128,-1.5148,-1.5154,-1.5164,-1.5153,-1.5135,-1.5145,-1.5077,-1.5151,-1.5151,-1.5151,-1.5151,-1.5151,-1.4347,-1.4387,-1.4452,-1.4515,-1.4562,-1.4613,-1.4657,-1.4702,-1.4759,-1.4833,-1.4858,-1.4927,-1.4989,-1.5085,-1.5125,-1.518,-1.5179,-1.5194,-1.5198,-1.5201,-1.52,-1.5126,-1.5192,-1.5192,-1.5192,-1.5192,-1.5192,0,-1.4394,-1.4438,-1.4496,-1.4573,-1.4623,-1.4639,-1.4701,-1.4742,-1.4803,-1.4859,-1.4914,-1.4992,-1.5057,-1.5114,-1.5182,-1.5215,-1.5226,-1.5231,-1.5229,-1.5237,-1.5196,-1.5181,-1.5221,-1.5221,-1.5221,-1.5221,-1.5221,-1.5221,-1.4424,-1.4494,-1.4524,-1.4618,-1.4661,-1.473,-1.4764,-1.4812,-1.4857,-1.4943,-1.4997,-1.5035,-1.5092,-1.5164,-1.5224,-1.5239,-1.5263,-1.5266,-1.5283,-1.5244,-1.524,-1.5237,-1.5223,-1.527,-1.527,-1.532,-1.532,-1.532]}]]